• In Hungary
  • List of Countries
  • For 7 days
  • Water Temperature
  • Satellite Maps
  • Weather Map
  • News
  • Weather Widgets
  • user-avatar
    Login

    Hourly Weather Rimini

    Today, 14 November, Wednesday

    Time Temperature Precipitation Wind Pressure Humidity
    00:00 +14°C° 0 mm 1 mps 770 mmHg 78%
    01:00 +14°C° 0 mm 1 mps 770 mmHg 79%
    02:00 +14°C° 0 mm 2 mps 770 mmHg 80%
    03:00 +13°C° 0 mm 2 mps 770 mmHg 80%
    04:00 +13°C° 0 mm 2 mps 770 mmHg 81%
    05:00 +13°C° 0 mm 2 mps 770 mmHg 82%
    06:00 +13°C° 0 mm 2 mps 770 mmHg 83%
    07:00 +13°C° 0 mm 2 mps 770 mmHg 84%
    08:00 +13°C° 0 mm 3 mps 770 mmHg 81%
    09:00 +16°C° 0 mm 3 mps 770 mmHg 78%
    10:00 +17°C° 0 mm 3 mps 770 mmHg 75%
    11:00 +17°C° 0 mm 3 mps 770 mmHg 75%
    12:00 +18°C° 0 mm 3 mps 770 mmHg 74%
    13:00 +18°C° 0 mm 3 mps 769 mmHg 73%
    14:00 +18°C° 0 mm 3 mps 769 mmHg 75%
    15:00 +18°C° 0 mm 3 mps 769 mmHg 76%
    16:00 +17°C° 0 mm 3 mps 768 mmHg 77%
    17:00 +16°C° 0 mm 3 mps 769 mmHg 80%
    18:00 +15°C° 0 mm 2 mps 769 mmHg 84%
    19:00 +14°C° 0 mm 2 mps 769 mmHg 87%
    20:00 +14°C° 0 mm 2 mps 769 mmHg 87%
    21:00 +14°C° 0 mm 2 mps 769 mmHg 88%
    22:00 +13°C° 0 mm 2 mps 769 mmHg 89%
    23:00 +13°C° 0 mm 2 mps 769 mmHg 89%

    Tomorrow, 15 November, Thursday

    Time Temperature Precipitation Wind Pressure Humidity
    00:00 +12°C° 0 mm 3 mps 769 mmHg 90%
    01:00 +12°C° 0 mm 3 mps 769 mmHg 90%
    02:00 +11°C° 0 mm 3 mps 769 mmHg 91%
    03:00 +11°C° 0 mm 3 mps 769 mmHg 92%
    04:00 +11°C° 0 mm 3 mps 768 mmHg 93%
    05:00 +11°C° 0 mm 3 mps 768 mmHg 94%
    06:00 +12°C° 0 mm 2 mps 768 mmHg 94%
    07:00 +12°C° 0 mm 2 mps 768 mmHg 95%
    08:00 +13°C° 0 mm 2 mps 769 mmHg 91%
    09:00 +13°C° 0 mm 3 mps 769 mmHg 86%
    10:00 +14°C° 0 mm 3 mps 769 mmHg 82%
    11:00 +16°C° 0 mm 3 mps 769 mmHg 75%
    12:00 +17°C° 0 mm 3 mps 768 mmHg 69%
    13:00 +18°C° 0 mm 3 mps 768 mmHg 62%
    14:00 +17°C° 0 mm 2 mps 768 mmHg 63%
    15:00 +17°C° 0 mm 2 mps 768 mmHg 65%
    16:00 +16°C° 0 mm 2 mps 767 mmHg 66%
    17:00 +15°C° 0 mm 2 mps 767 mmHg 70%
    18:00 +14°C° 0 mm 2 mps 768 mmHg 75%
    19:00 +12°C° 0 mm 2 mps 768 mmHg 79%
    20:00 +12°C° 0 mm 2 mps 768 mmHg 79%
    21:00 +12°C° 0 mm 2 mps 768 mmHg 79%
    22:00 +12°C° 0 mm 2 mps 768 mmHg 80%
    23:00 +10°C° 0 mm 2 mps 768 mmHg 81%

    Day after tomorrow, 16 November, Friday

    Time Temperature Precipitation Wind Pressure Humidity
    00:00 +10°C° 0 mm 2 mps 768 mmHg 81%
    01:00 +10°C° 0 mm 3 mps 768 mmHg 82%
    02:00 +10°C° 0 mm 3 mps 768 mmHg 83%
    03:00 +10°C° 0 mm 3 mps 768 mmHg 84%
    04:00 +10°C° 0 mm 3 mps 768 mmHg 85%
    05:00 +10°C° 0 mm 3 mps 768 mmHg 85%
    06:00 +9°C° 0 mm 3 mps 769 mmHg 86%
    07:00 +9°C° 0 mm 3 mps 769 mmHg 86%
    08:00 +11°C° 0 mm 3 mps 769 mmHg 80%
    09:00 +12°C° 0 mm 4 mps 769 mmHg 75%
    10:00 +14°C° 0 mm 4 mps 769 mmHg 69%
    11:00 +14°C° 0 mm 4 mps 769 mmHg 65%
    12:00 +15°C° 0 mm 5 mps 769 mmHg 60%
    13:00 +16°C° 0 mm 5 mps 769 mmHg 56%
    14:00 +15°C° 0 mm 5 mps 769 mmHg 58%
    15:00 +14°C° 0 mm 5 mps 768 mmHg 60%
    16:00 +14°C° 0 mm 4 mps 768 mmHg 61%
    17:00 +13°C° 0 mm 5 mps 768 mmHg 65%
    18:00 +12°C° 0 mm 5 mps 769 mmHg 68%
    19:00 +10°C° 0 mm 5 mps 769 mmHg 72%
    20:00 +10°C° 0 mm 5 mps 769 mmHg 73%
    21:00 +9°C° 0 mm 5 mps 769 mmHg 74%
    22:00 +9°C° 0 mm 5 mps 769 mmHg 75%
    23:00 +9°C° 0 mm 5 mps 769 mmHg 76%

    17 November, Saturday

    Time Temperature Precipitation Wind Pressure Humidity
    00:00 +9°C° 0 mm 5 mps 769 mmHg 76%
    01:00 +9°C° 0 mm 5 mps 769 mmHg 77%
    02:00 +10°C° 0.1 mm 4 mps 769 mmHg 77%
    03:00 +10°C° 0.1 mm 4 mps 769 mmHg 78%
    04:00 +10°C° 0.1 mm 4 mps 768 mmHg 78%
    05:00 +10°C° 0 mm 4 mps 768 mmHg 79%
    06:00 +10°C° 0 mm 4 mps 768 mmHg 79%
    07:00 +8°C° 0 mm 4 mps 768 mmHg 80%
    08:00 +9°C° 0.1 mm 5 mps 768 mmHg 76%
    09:00 +10°C° 0.1 mm 5 mps 769 mmHg 73%
    10:00 +11°C° 0.1 mm 6 mps 769 mmHg 69%
    11:00 +11°C° 0.1 mm 6 mps 769 mmHg 68%
    12:00 +12°C° 0.1 mm 5 mps 768 mmHg 67%
    13:00 +12°C° 0.1 mm 5 mps 768 mmHg 66%
    14:00 +11°C° 0 mm 6 mps 768 mmHg 67%
    15:00 +11°C° 0 mm 6 mps 768 mmHg 67%
    16:00 +11°C° 0 mm 6 mps 768 mmHg 68%
    17:00 +10°C° 0 mm 6 mps 768 mmHg 69%
    18:00 +10°C° 0 mm 6 mps 768 mmHg 71%
    19:00 +10°C° 0 mm 6 mps 768 mmHg 72%
    20:00 +10°C° 0 mm 6 mps 768 mmHg 73%
    21:00 +9°C° 0 mm 6 mps 768 mmHg 74%
    22:00 +9°C° 0 mm 6 mps 768 mmHg 75%
    23:00 +9°C° 0 mm 6 mps 768 mmHg 74%

    18 November, Sunday

    Time Temperature Precipitation Wind Pressure Humidity
    00:00 +9°C° 0 mm 7 mps 768 mmHg 74%
    01:00 +9°C° 0 mm 7 mps 767 mmHg 73%
    02:00 +9°C° 0 mm 7 mps 767 mmHg 72%
    03:00 +9°C° 0 mm 7 mps 766 mmHg 72%
    04:00 +9°C° 0 mm 7 mps 766 mmHg 71%
    05:00 +9°C° 0 mm 7 mps 766 mmHg 71%
    06:00 +9°C° 0 mm 8 mps 766 mmHg 71%
    07:00 +9°C° 0 mm 8 mps 766 mmHg 70%
    08:00 +9°C° 0 mm 8 mps 766 mmHg 67%
    09:00 +8°C° 0 mm 9 mps 766 mmHg 64%
    10:00 +10°C° 0 mm 9 mps 766 mmHg 60%
    11:00 +10°C° 0 mm 9 mps 765 mmHg 60%
    12:00 +10°C° 0 mm 8 mps 765 mmHg 60%
    13:00 +10°C° 0 mm 8 mps 764 mmHg 60%
    14:00 +10°C° 0 mm 8 mps 764 mmHg 61%
    15:00 +10°C° 0 mm 8 mps 763 mmHg 62%
    16:00 +9°C° 0 mm 7 mps 763 mmHg 63%
    17:00 +9°C° 0 mm 7 mps 763 mmHg 65%
    18:00 +9°C° 0 mm 8 mps 763 mmHg 67%
    19:00 +7°C° 0 mm 8 mps 762 mmHg 70%
    20:00 +8°C° 0 mm 7 mps 762 mmHg 70%
    21:00 +8°C° 0 mm 7 mps 762 mmHg 70%
    22:00 +8°C° 0 mm 7 mps 762 mmHg 70%
    23:00 +8°C° 0 mm 7 mps 762 mmHg 70%

    19 November, Monday

    Time Temperature Precipitation Wind Pressure Humidity
    00:00 +8°C° 0 mm 7 mps 762 mmHg 70%
    01:00 +8°C° 0 mm 7 mps 761 mmHg 70%
    02:00 +8°C° 0 mm 6 mps 761 mmHg 70%
    03:00 +8°C° 0 mm 6 mps 761 mmHg 69%
    04:00 +8°C° 0 mm 6 mps 760 mmHg 68%
    05:00 +7°C° 0 mm 6 mps 760 mmHg 68%
    06:00 +7°C° 0 mm 6 mps 760 mmHg 68%
    07:00 +7°C° 0 mm 6 mps 760 mmHg 67%
    08:00 +7°C° 0 mm 6 mps 760 mmHg 65%
    09:00 +8°C° 0 mm 6 mps 760 mmHg 63%
    10:00 +8°C° 0 mm 6 mps 761 mmHg 60%
    11:00 +8°C° 0 mm 6 mps 760 mmHg 58%
    12:00 +9°C° 0 mm 6 mps 760 mmHg 56%
    13:00 +10°C° 0 mm 6 mps 759 mmHg 54%
    14:00 +9°C° 0 mm 5 mps 759 mmHg 55%
    15:00 +9°C° 0 mm 5 mps 759 mmHg 55%
    16:00 +9°C° 0 mm 5 mps 759 mmHg 56%
    17:00 +9°C° 0 mm 5 mps 759 mmHg 58%
    18:00 +8°C° 0 mm 6 mps 759 mmHg 60%
    19:00 +8°C° 0 mm 6 mps 759 mmHg 62%
    20:00 +7°C° 0 mm 6 mps 760 mmHg 66%
    21:00 +7°C° 0 mm 6 mps 760 mmHg 69%
    22:00 +7°C° 0 mm 6 mps 760 mmHg 72%
    23:00 +7°C° 0 mm 6 mps 760 mmHg 74%
    Show more